Torna al catalogo

CZ-6A DEB

AttivoSSO
NORAD 54608·DEBRIS·🇨🇳 China

Lanciato Nov 11, 2022 da Taiyuan Satellite Launch Center

Loading…

Prossimi Passaggi (prossime 24 ore)

TLE

AggiornatoSource: Space-Track

Epoca: Sep 14, 2026, 21:53 UTC

1 54608U 22151NJ  26257.91184167  .00000557  00000-0  34854-3 0  9997
2 54608  98.8610 247.1785 0065218 100.5896 260.2628 14.07597311196462

Traccia CZ-6A DEB in tempo reale con AllMySat

Download on the App Store